ONEWEB-0689, 61597

Orbit data source: Space-Track

ONEWEB-0689, 61597 is a payload satellite owned by Eut. One Web (UK) in LEO that was launched on Sun, 20 Oct 2024 UTC via an FALCON 9 launch vehicle from the Air Force Western Test Range (AFWTR). Payload-class satellites include a variety of spacecraft equipped with specific instruments for various scientific and technological missions. These include communications satellites like Starlink; space stations such as the ISS; scientific satellites like the Hubble; Earth observation satellites from companies like Planet Labs, Umbra, and HawkEye 360; GPS; miniature CubeSats for education and research; and military/defense satellites.

Loading next visibility...
Identifier
61597, 2024-188D
Orbit
LEO
Country
Flag of UKUK
Related business
Manufacturer
One Web
Mission
Operational Commercial Communications
Bus & Motor
ARROW, Unknown motor
Mass
148 kg wet, ~140 kg dry
Launch date (UTC)
2024-10-20 (1 year ago)
Launch vehicle
FALCON 9
Launch site
Air Force Western Test Range (AFWTR)
Object type
Payload
Rocket body
Debris
Shape & HBR
Trap Box + 2 Pan, 6.7 m
Radar Cross Section
3.464 m², Large (>1 m²)

Expand to show TLE details & history
Last TLE update: 21 hours ago

TLE from 21 hours ago
0 ONEWEB-0689
1 61597U 24188D   25348.62887694 -.00000272  00000-0 -80414-3 0  9996
2 61597  87.8848  57.7863 0001392 108.1125 252.0155 13.11418649 60264
Epoch: 2025-12-14T15:05Z
TLE epoch observation values (Epoch: 2025-12-14T15:05:34.967Z)
Latitude
0.00001°
Longitude
107.85155°
Altitude
1,220.892 km
Speed
7.244 km/s
True Right ascension
03h 51m 08s
True Declination
0° 00' 00"
Sunlit
Object was in full shadow at epoch
Visualization orbit readout
Latitude
Unknown
Longitude
Unknown
Altitude
Unknown
Speed
Unknown
Apparent Right ascension
Unknown
Apparent Declination
Unknown
Sunlit
N/A
Visualization observer readout
Local Sidereal Time
11:04:36
Azimuth
Unknown
Elevation
Unknown
Doppler factor
Unknown
Orbital elements
Apogee altitude
1,215.851 km
Perigee altitude
1,213.737 km
Semi-major axis
7,592.931 km
Eccentricity
0.00014
Inclination
87.8848°
RAAN
57.7863°
Arg. of periapsis
108.1125°
True anomaly
252.00033°
Mean anomaly
252.0155°
Eccentric anomaly
252.00791°
Mean motion
3.28042 °/min
Orbital period
109.74 mins
BSTAR
-0.00080414
Loading maneuver chart data...
Computing Atmospheric mass density...
Loading historical data...
Loading historical data...
Loading historical data...
Loading historical data...
Loading historical data...
Loading historical data...
Loading historical data...

Documentation

Showing up to 5 results
|